This demonstration page uses our WeatherBlox Daily Observations layout. Learn more.

Left ArrowRight Arrow

Hourly Observations for June 25, 2015

Temp ( °F °C ) Dew Point ( °F °C ) Humidity (%) Winds ( mph kmh ) Pressure ( in mb ) Visibility ( mi km ) Precip ( " mm )
12:59 am 00:59 Mostly Clear 69 20.6 66 18.9 90 90 Calm 30.09 1019 10 16 0.00 0.00
1:59 am 01:59 Cloudy 70 21.1 46 7.8 42 42 SSE 5 7 29.77 1008 10 16 0.00 0.00
2:59 am 02:59 Mostly Cloudy 73 22.8 66 18.9 79 79 S 5 7 30.08 1019 10 16 0.00 0.00
3:59 am 03:59 Mostly Cloudy 71 21.7 66 18.9 84 84 Calm 30.07 1018 10 16 0.00 0.00
4:59 am 04:59 Mostly Cloudy 71 21.7 67 19.4 87 87 SSW 5 7 30.09 1019 10 16 0.00 0.00
5:59 am 05:59 Mostly Cloudy 73 22.8 69 20.6 87 87 SSW 5 7 30.09 1019 8 13 0.00 0.00
6:59 am 06:59 Mostly Cloudy 75 23.9 69 20.6 82 82 S 3 6 30.09 1019 9 14 0.00 0.00
7:59 am 07:59 Mostly Cloudy 77 25 69 20.6 77 77 Calm 30.11 1020 9 14 0.00 0.00
8:59 am 08:59 Partly Cloudy 56 13.3 43 6.1 62 62 Calm 29.78 1009 10 16 0.00 0.00
9:59 am 09:59 Partly Cloudy 82 27.8 65 18.3 56 56 VRB 3 6 30.11 1020 10 16 0.00 0.00
10:59 am 10:59 Partly Cloudy 84 28.9 63 17.2 49 49 Calm 30.09 1019 10 16 0.00 0.00
11:59 am 11:59 Partly Cloudy 85 29.4 63 17.2 48 48 E 5 7 30.06 1018 10 16 0.00 0.00
12:59 pm 12:59 Mostly Cloudy 85 29.4 65 18.3 51 51 E 10 17 30.06 1018 10 16 0.00 0.00
1:59 pm 13:59 Mostly Cloudy 86 30 66 18.9 51 51 S 6 9 30.05 1018 10 16 0.00 0.00
2:59 pm 14:59 Mostly Cloudy 86 30 65 18.3 49 49 SSE 14 22 30.03 1017 10 16 0.00 0.00
3:59 pm 15:59 Mostly Cloudy 84 28.9 64 17.8 51 51 SE 13 20 30.02 1017 10 16 0.00 0.00
4:29 pm 16:29 Mostly Cloudy with Thunderstorms 81 27.2 64 17.8 57 57 SE 7 11 30.03 1017 9 14 0.00 0.03
4:59 pm 16:59 Mostly Cloudy with Thunderstorms 75 23.9 68 20 79 79 SSE 10 17 30.01 1016 3 5 0.04 1.02
5:59 pm 17:59 Mostly Cloudy with Thunderstorms 75 23.9 68 20 79 79 S 6 9 30.00 1016 10 16 0.00 0.03
6:37 pm 18:37 Mostly Cloudy 75 23.9 67 19.4 76 76 SE 5 7 30.00 1016 10 16 0.00 0.00
6:59 pm 18:59 Mostly Cloudy 77 25 67 19.4 71 71 SE 9 15 29.98 1015 10 16 0.00 0.00
7:59 pm 19:59 Mostly Cloudy 77 25 69 20.6 77 77 SSE 6 9 29.98 1015 10 16 0.00 0.00
8:59 pm 20:59 Mostly Cloudy 76 24.4 71 21.7 85 85 SSE 8 13 29.94 1014 10 16 0.00 0.00
9:59 pm 21:59 Mostly Cloudy 77 25 73 22.8 88 88 S 7 11 29.93 1014 9 14 0.00 0.00
10:59 pm 22:59 Cloudy 76 24.4 71 21.7 85 85 S 9 15 29.93 1013 10 16 0.00 0.00
11:59 pm 23:59 Cloudy with Thunderstorms 75 23.9 68 20 79 79 W 16 26 29.98 1015 10 16 0.00 0.00

Powered by AerisWeather